Weather History for KIWD - April, 2014

Change the Weather History Date:

Monday, April 28, 2014

  Actual Average Record
Temperature  
Mean Temperature 47 °F -  
Max Temperature 55 °F 57 °F 80 °F (2004)
Min Temperature 39 °F 33 °F 24 °F (1998)
Degree Days  
Heating Degree Days 18    
Moisture  
Dew Point 25 °F    
Average Humidity 46    
Maximum Humidity 70    
Minimum Humidity 25    
Precipitation  
Precipitation 0.00 in - - ()
Sea Level Pressure  
Sea Level Pressure 29.86 in    
Wind  
Wind Speed 17 mph (East)    
Max Wind Speed 30 mph    
Max Gust Speed 40 mph    
Visibility 10 miles    
Events      
Averages and records for this station are not official NWS values.
T = Trace of Precipitation, MM = Missing Value Source: NWS Daily Summary

Daily Weather History Graph

Daily Weather History Graph

Search for Another Location

Airport or City:

Trip Planner

Search our weather history database for the weather conditions in past years. The results will help you decide how hot, cold, wet, or windy it might be!

Date:

Astronomy

Apr. 28, 2014 Rise Set
Actual Time 5:50 AM CDT 8:05 PM CDT
Civil Twilight 5:17 AM CDT 8:39 PM CDT
Nautical Twilight 4:36 AM CDT 9:20 PM CDT
Astronomical Twilight 3:50 AM CDT 10:07 PM CDT
Moon 5:32 AM CDT (4/28) 7:42 PM CDT (4/28)
Length of Visible Light 15h 21m
Length of Day
14h 15m
Waning Crescent, 0% of the Moon is Illuminated
Apr 28
Waning Crescent
Apr 29
New
May 6
First Quarter
May 14
Full
May 21
Last Quarter

Hourly Weather History & Observations

Time (CDT) Temp. Windchill Dew Point Humidity Pressure Visibility Wind Dir Wind Speed Gust Speed Precip Events Conditions
12:15 AM 39.2 °F 30.5 °F 30.2 °F 70% 29.90 in 10.0 mi East 16.1 mph 26.5 mph N/A   Mostly Cloudy
12:35 AM 39.2 °F 31.6 °F 30.2 °F 70% 29.91 in 10.0 mi ESE 12.7 mph 24.2 mph N/A   Mostly Cloudy
12:55 AM 39.2 °F 31.6 °F 30.2 °F 70% 29.89 in 10.0 mi East 12.7 mph - N/A   Overcast
1:15 AM 39.2 °F 31.2 °F 30.2 °F 70% 29.89 in 10.0 mi East 13.8 mph 24.2 mph N/A   Overcast
1:35 AM 39.2 °F 29.6 °F 30.2 °F 70% 29.87 in 10.0 mi East 19.6 mph 28.8 mph N/A   Overcast
1:55 AM 41.0 °F 31.4 °F 26.6 °F 57% 29.87 in 10.0 mi ESE 21.9 mph 27.6 mph N/A   Overcast
2:15 AM 42.8 °F 33.8 °F 26.6 °F 53% 29.86 in 10.0 mi ESE 21.9 mph 31.1 mph N/A   Overcast
2:35 AM 42.8 °F 34.3 °F 24.8 °F 49% 29.87 in 10.0 mi ESE 19.6 mph 34.5 mph N/A   Overcast
3:15 AM 42.8 °F 34.3 °F 23.0 °F 46% 29.88 in 10.0 mi ESE 19.6 mph 27.6 mph N/A   Overcast
3:35 AM 42.8 °F 35.4 °F 21.2 °F 42% 29.90 in 10.0 mi ESE 15.0 mph 29.9 mph N/A   Overcast
4:35 AM 42.8 °F 35.1 °F 24.8 °F 49% 29.91 in 10.0 mi ESE 16.1 mph 20.7 mph N/A   Overcast
4:55 AM 42.8 °F 35.4 °F 26.6 °F 53% 29.91 in 10.0 mi East 15.0 mph 21.9 mph N/A   Overcast
5:35 AM 41.0 °F 32.5 °F 26.6 °F 57% 29.90 in 10.0 mi East 17.3 mph - N/A   Overcast
5:55 AM 41.0 °F 32.2 °F 26.6 °F 57% 29.91 in 10.0 mi East 18.4 mph 24.2 mph N/A   Overcast
6:15 AM 41.0 °F 32.8 °F 26.6 °F 57% 29.92 in 10.0 mi East 16.1 mph 20.7 mph N/A   Overcast
6:35 AM 39.2 °F 30.8 °F 26.6 °F 61% 29.92 in 10.0 mi East 15.0 mph - N/A   Overcast
6:55 AM 39.2 °F 30.8 °F 28.4 °F 65% 29.92 in 10.0 mi East 15.0 mph 20.7 mph N/A   Overcast
7:15 AM 39.2 °F 30.5 °F 28.4 °F 65% 29.91 in 10.0 mi East 16.1 mph - N/A   Overcast
7:35 AM 39.2 °F 29.8 °F 28.4 °F 65% 29.90 in 10.0 mi East 18.4 mph 26.5 mph N/A   Overcast
7:55 AM 39.2 °F 29.8 °F 28.4 °F 65% 29.90 in 10.0 mi East 18.4 mph 24.2 mph N/A   Overcast
8:15 AM 39.2 °F 28.7 °F 28.4 °F 65% 29.90 in 10.0 mi East 23.0 mph 26.5 mph N/A   Overcast
8:35 AM 39.2 °F 29.8 °F 28.4 °F 65% 29.89 in 10.0 mi East 18.4 mph 26.5 mph N/A   Overcast
8:55 AM 39.2 °F 29.8 °F 28.4 °F 65% 29.88 in 10.0 mi East 18.4 mph 27.6 mph N/A   Overcast
9:15 AM 39.2 °F 30.2 °F 28.4 °F 65% 29.88 in 10.0 mi East 17.3 mph 26.5 mph N/A   Overcast
9:55 AM 42.8 °F 34.8 °F 28.4 °F 57% 29.87 in 10.0 mi East 17.3 mph 23.0 mph N/A   Mostly Cloudy
10:15 AM 44.6 °F 37.2 °F 26.6 °F 49% 29.86 in 10.0 mi East 17.3 mph 21.9 mph N/A   Scattered Clouds
10:35 AM 46.4 °F 39.2 °F 26.6 °F 46% 29.86 in 10.0 mi East 18.4 mph 24.2 mph N/A   Scattered Clouds
10:55 AM 46.4 °F 38.7 °F 26.6 °F 46% 29.86 in 10.0 mi East 20.7 mph 26.5 mph N/A   Mostly Cloudy
11:15 AM 48.2 °F - 24.8 °F 40% 29.85 in 10.0 mi East 18.4 mph 25.3 mph N/A   Overcast
11:35 AM 48.2 °F - 24.8 °F 40% 29.86 in 10.0 mi East 13.8 mph 24.2 mph N/A   Overcast
11:55 AM 48.2 °F - 24.8 °F 40% 29.85 in 10.0 mi East 23.0 mph 32.2 mph N/A   Overcast
12:15 PM 48.2 °F - 24.8 °F 40% 29.84 in 10.0 mi ESE 23.0 mph 34.5 mph N/A   Overcast
12:35 PM 50.0 °F - 24.8 °F 37% 29.84 in 10.0 mi East 15.0 mph 25.3 mph N/A   Mostly Cloudy
12:55 PM 51.8 °F - 24.8 °F 35% 29.84 in 10.0 mi East 21.9 mph 31.1 mph N/A   Mostly Cloudy
1:15 PM 51.8 °F - 24.8 °F 35% 29.84 in 10.0 mi East 19.6 mph 25.3 mph N/A   Mostly Cloudy
1:35 PM 53.6 °F - 24.8 °F 33% 29.83 in 10.0 mi ESE 19.6 mph 26.5 mph N/A   Mostly Cloudy
1:55 PM 53.6 °F - 24.8 °F 33% 29.82 in 10.0 mi East 19.6 mph 29.9 mph N/A   Mostly Cloudy
2:15 PM 53.6 °F - 24.8 °F 33% 29.83 in 10.0 mi East 15.0 mph 31.1 mph N/A   Scattered Clouds
2:55 PM 53.6 °F - 21.2 °F 28% 29.83 in 10.0 mi ESE 18.4 mph 38.0 mph N/A   Mostly Cloudy
3:15 PM 55.4 °F - 19.4 °F 25% 29.82 in 10.0 mi East 23.0 mph 38.0 mph N/A   Mostly Cloudy
3:35 PM 53.6 °F - 19.4 °F 26% 29.82 in 10.0 mi East 21.9 mph 32.2 mph N/A   Partly Cloudy
4:15 PM 53.6 °F - 19.4 °F 26% 29.80 in 10.0 mi East 29.9 mph 39.1 mph N/A   Clear
4:35 PM 51.8 °F - 19.4 °F 28% 29.81 in 10.0 mi East 25.3 mph 40.3 mph N/A   Clear
4:55 PM 51.8 °F - 19.4 °F 28% 29.81 in 10.0 mi East 15.0 mph 25.3 mph N/A   Clear
5:15 PM 48.2 °F - 24.8 °F 40% 29.81 in 10.0 mi East 18.4 mph 26.5 mph N/A   Scattered Clouds
5:35 PM 48.2 °F - 24.8 °F 40% 29.81 in 10.0 mi ENE 19.6 mph 24.2 mph N/A   Scattered Clouds
5:55 PM 48.2 °F - 24.8 °F 40% 29.83 in 10.0 mi East 18.4 mph - N/A   Mostly Cloudy
6:15 PM 46.4 °F 40.4 °F 23.0 °F 40% 29.84 in 10.0 mi East 13.8 mph 18.4 mph N/A   Overcast
6:35 PM 46.4 °F 40.4 °F 23.0 °F 40% 29.84 in 10.0 mi East 13.8 mph 20.7 mph N/A   Overcast
6:55 PM 46.4 °F 41.5 °F 23.0 °F 40% 29.85 in 10.0 mi ENE 10.4 mph - N/A   Mostly Cloudy
7:15 PM 46.4 °F 41.5 °F 23.0 °F 40% 29.86 in 10.0 mi ENE 10.4 mph 23.0 mph N/A   Mostly Cloudy
7:35 PM 44.6 °F 39.2 °F 23.0 °F 43% 29.87 in 10.0 mi ENE 10.4 mph - N/A   Overcast
7:55 PM 44.6 °F 38.4 °F 23.0 °F 43% 29.86 in 10.0 mi ENE 12.7 mph - N/A   Overcast
8:15 PM 44.6 °F 38.8 °F 21.2 °F 39% 29.87 in 10.0 mi ENE 11.5 mph 16.1 mph N/A   Overcast
8:35 PM 44.6 °F 39.7 °F 21.2 °F 39% 29.88 in 10.0 mi ENE 9.2 mph - N/A   Overcast
8:55 PM 44.6 °F 38.4 °F 21.2 °F 39% 29.88 in 10.0 mi ENE 12.7 mph - N/A   Overcast
9:15 PM 44.6 °F 39.2 °F 21.2 °F 39% 29.88 in 10.0 mi ENE 10.4 mph 16.1 mph N/A   Overcast
9:35 PM 44.6 °F 38.1 °F 21.2 °F 39% 29.88 in 10.0 mi ENE 13.8 mph - N/A   Overcast
9:55 PM 44.6 °F 38.1 °F 21.2 °F 39% 29.88 in 10.0 mi ENE 13.8 mph 19.6 mph N/A   Mostly Cloudy
10:15 PM 44.6 °F 37.8 °F 21.2 °F 39% 29.87 in 10.0 mi East 15.0 mph 19.6 mph N/A   Mostly Cloudy
10:35 PM 44.6 °F 37.4 °F 21.2 °F 39% 29.86 in 10.0 mi East 16.1 mph 21.9 mph N/A   Mostly Cloudy
10:55 PM 44.6 °F 38.1 °F 21.2 °F 39% 29.85 in 10.0 mi ENE 13.8 mph 21.9 mph N/A   Clear
11:15 PM 44.6 °F 38.1 °F 21.2 °F 39% 29.84 in 10.0 mi ENE 13.8 mph - N/A   Partly Cloudy
11:35 PM 44.6 °F 37.8 °F 21.2 °F 39% 29.83 in 10.0 mi ENE 15.0 mph 21.9 mph N/A   Mostly Cloudy
11:55 PM 44.6 °F 37.4 °F 21.2 °F 39% 29.83 in 10.0 mi ENE 16.1 mph 20.7 mph N/A   Overcast